FW6321 Weather Reports


time (UTC)temp
C
wind
direction
speed
KPH
gust
KPH
rain 1hr
cm
rain 24hr
cm
rain mn
cm
humidity
%
barometer
mb
20200531074341 18 71 8.0 17.7 0.00 0.00 0.00 52 1024.7
20200531073848 18 53 8.0 14.5 0.00 0.00 0.00 54 1024.7
20200531073345 18 93 8.0 14.5 0.00 0.00 0.00 55 1024.8
20200531072832 18 95 8.0 16.1 0.00 0.00 0.00 55 1024.8
20200531072331 18 106 9.7 20.9 0.00 0.00 0.00 55 1024.8
20200531071830 17 77 9.7 22.5 0.00 0.00 0.00 57 1024.8
20200531071337 17 102 8.0 22.5 0.00 0.00 0.00 55 1024.8
20200531070835 17 106 9.7 17.7 0.00 0.00 0.00 59 1024.8
20200531070326 17 115 9.7 17.7 0.00 0.00 0.00 59 1024.8
20200531065822 17 72 8.0 16.1 0.00 0.00 0.00 59 1024.8
20200531065320 17 58 8.0 16.1 0.00 0.00 0.00 59 1024.8
20200531064819 17 56 8.0 17.7 0.00 0.00 0.00 62 1024.8
20200531064329 16 32 8.0 17.7 0.00 0.00 0.00 60 1024.7
20200531063815 16 90 8.0 16.1 0.00 0.00 0.00 62 1024.7
20200531063315 16 74 6.4 12.9 0.00 0.00 0.00 62 1024.8
20200531062824 16 33 6.4 12.9 0.00 0.00 0.00 63 1024.8
20200531062311 16 62 6.4 12.9 0.00 0.00 0.00 64 1024.8
20200531061809 16 60 6.4 12.9 0.00 0.00 0.00 63 1024.8
20200531061319 16 59 6.4 12.9 0.00 0.00 0.00 65 1024.7
20200531060811 16 96 6.4 14.5 0.00 0.00 0.00 66 1024.7
20200531060316 16 83 6.4 14.5 0.00 0.00 0.00 65 1024.8
20200531055812 15 66 6.4 12.9 0.00 0.00 0.00 66 1024.8
20200531055316 15 56 6.4 12.9 0.00 0.00 0.00 67 1024.8
20200531054813 15 56 6.4 12.9 0.00 0.00 0.00 67 1024.8
20200531054318 15 62 6.4 12.9 0.00 0.00 0.00 68 1024.8
20200531053759 15 82 6.4 17.7 0.00 0.00 0.00 69 1024.8
20200531053310 14 65 8.0 17.7 0.00 0.00 0.00 69 1024.7
20200531052812 14 100 8.0 17.7 0.00 0.00 0.00 69 1024.7
20200531052258 14 65 6.4 12.9 0.00 0.00 0.00 71 1024.6
20200531051758 13 109 6.4 12.9 0.00 0.00 0.00 72 1024.6
20200531051254 13 60 6.4 12.9 0.00 0.00 0.00 72 1024.6
20200531050754 13 114 6.4 12.9 0.00 0.00 0.00 73 1024.6
20200531050253 13 90 6.4 12.9 0.00 0.00 0.00 73 1024.5
20200531045758 13 86 6.4 12.9 0.00 0.00 0.00 73 1024.5
20200531045251 13 60 6.4 12.9 0.00 0.00 0.00 74 1024.5
20200531044750 12 91 6.4 12.9 0.00 0.00 0.00 73 1024.4
20200531044246 12 89 6.4 14.5 0.00 0.00 0.00 74 1024.5
20200531043756 12 61 6.4 14.5 0.00 0.00 0.00 73 1024.3
20200531043246 12 72 6.4 12.9 0.00 0.00 0.00 73 1024.3
20200531042756 13 73 6.4 12.9 0.00 0.00 0.00 73 1024.3
20200531042247 13 69 6.4 12.9 0.00 0.00 0.00 73 1024.3
20200531041740 12 87 4.8 12.9 0.00 0.00 0.00 74 1024.3
20200531041237 12 82 4.8 12.9 0.00 0.00 0.00 74 1024.2
20200531040738 12 95 4.8 12.9 0.00 0.00 0.00 75 1024.2
20200531040234 12 111 4.8 9.7 0.00 0.00 0.00 74 1024.1
20200531035732 12 89 4.8 9.7 0.00 0.00 0.00 74 1024.2
20200531035237 12 70 4.8 9.7 0.00 0.00 0.00 74 1024.0
20200531034731 12 62 3.2 9.7 0.00 0.00 0.00 73 1024.1
20200531034221 12 44 3.2 8.0 0.00 0.00 0.00 72 1024.0
20200531033730 13 49 3.2 8.0 0.00 0.00 0.00 72 1024.0
20200531033218 13 43 3.2 9.7 0.00 0.00 0.00 72 1024.0
20200531032728 13 37 4.8 9.7 0.00 0.00 0.00 71 1024.0
20200531032225 13 78 6.4 11.3 0.00 0.00 0.00 71 1023.9
20200531031724 13 89 6.4 11.3 0.00 0.00 0.00 71 1023.9
20200531031212 13 80 6.4 11.3 0.00 0.00 0.00 70 1023.8
20200531030712 13 87 4.8 8.0 0.00 0.00 0.00 71 1023.8
20200531030211 13 93 4.8 9.7 0.00 0.00 0.00 71 1023.9
20200531025722 13 75 4.8 9.7 0.00 0.00 0.00 71 1023.9
20200531025210 13 75 4.8 8.0 0.00 0.00 0.00 71 1023.7
20200531024711 13 97 4.8 8.0 0.00 0.00 0.00 71 1023.7
20200531024206 13 85 4.8 8.0 0.00 0.00 0.00 71 1023.7
20200531023713 13 70 4.8 8.0 0.00 0.00 0.00 71 1023.7
20200531023204 13 85 4.8 8.0 0.00 0.00 0.00 70 1023.8
20200531022705 13 91 4.8 8.0 0.00 0.00 0.00 70 1023.8
20200531022204 13 72 4.8 8.0 0.00 0.00 0.00 70 1023.9
20200531021702 13 78 4.8 11.3 0.00 0.00 0.00 70 1023.8
20200531021204 13 100 4.8 11.3 0.00 0.00 0.00 70 1023.7
20200531020703 13 99 6.4 12.9 0.00 0.00 0.00 70 1023.8
20200531020205 13 82 6.4 12.9 0.00 0.00 0.00 69 1023.8
20200531015703 13 82 6.4 14.5 0.00 0.00 0.00 69 1023.9
20200531015215 13 98 6.4 14.5 0.00 0.00 0.00 69 1023.9
20200531014703 13 91 6.4 16.1 0.00 0.00 0.00 69 1023.9
20200531014201 14 91 6.4 16.1 0.00 0.00 0.00 68 1023.9
20200531013702 14 62 6.4 14.5 0.00 0.00 0.00 68 1023.9
20200531013204 14 87 8.0 14.5 0.00 0.00 0.00 68 1023.9
20200531012704 14 60 8.0 14.5 0.00 0.00 0.00 68 1023.9
20200531012204 14 88 8.0 14.5 0.00 0.00 0.00 68 1023.9
20200531011703 14 103 6.4 14.5 0.00 0.00 0.00 68 1023.9
20200531011155 14 99 6.4 14.5 0.00 0.00 0.00 68 1023.8
20200531010705 14 106 4.8 9.7 0.00 0.00 0.00 68 1023.9
20200531010159 15 59 6.4 14.5 0.00 0.00 0.00 69 1023.8
20200531005658 15 91 8.0 14.5 0.00 0.00 0.00 68 1023.8
20200531005154 15 72 9.7 17.7 0.00 0.00 0.00 68 1023.8
20200531004651 15 79 9.7 17.7 0.00 0.00 0.00 68 1023.8
20200531004153 15 89 9.7 17.7 0.00 0.00 0.00 68 1023.8
20200531003654 15 96 9.7 17.7 0.00 0.00 0.00 68 1023.9
20200531003200 15 74 8.0 17.7 0.00 0.00 0.00 69 1023.9
20200531002654 14 87 6.4 16.1 0.00 0.00 0.00 70 1023.9
20200531002153 14 99 3.2 11.3 0.00 0.00 0.00 71 1023.9
20200531001654 14 91 3.2 8.0 0.00 0.00 0.00 72 1023.8
20200531001153 14 51 3.2 9.7 0.00 0.00 0.00 72 1023.8
20200531000651 14 52 3.2 9.7 0.00 0.00 0.00 72 1023.8
20200531000146 15 38 3.2 6.4 0.00 0.00 0.00 72 1023.9
20200530235648 15 44 3.2 8.0 0.00 0.00 0.00 71 1023.9
20200530235149 15 47 3.2 8.0 0.00 0.00 0.00 71 1023.8
20200530234645 15 73 3.2 9.7 0.00 0.00 0.00 70 1023.9
20200530234148 15 51 3.2 9.7 0.00 0.00 0.00 70 1023.9
20200530233643 15 38 3.2 8.0 0.00 0.00 0.00 69 1024.0
20200530233153 15 34 3.2 6.4 0.00 0.00 0.00 69 1023.9
20200530232653 15 56 1.6 6.4 0.00 0.00 0.00 68 1023.9
20200530232139 15 51 3.2 8.0 0.00 0.00 0.00 68 1023.8
20200530231643 15 56 3.2 8.0 0.00 0.00 0.00 67 1023.8
20200530231139 15 51 3.2 9.7 0.00 0.00 0.00 67 1023.8
20200530230649 15 77 4.8 9.7 0.00 0.00 0.00 66 1023.9
20200530230142 15 48 3.2 9.7 0.00 0.00 0.00 66 1023.8
20200530225636 15 48 3.2 6.4 0.00 0.00 0.00 66 1023.7
20200530225138 15 91 3.2 8.0 0.00 0.00 0.00 66 1023.8
20200530224638 15 92 3.2 8.0 0.00 0.00 0.00 64 1023.7
20200530224141 15 81 3.2 6.4 0.00 0.00 0.00 64 1023.7
20200530223722 15 60 3.2 9.7 0.00 0.00 0.00 64 1023.8
20200530222649 15 67 3.2 6.4 0.00 0.00 0.00 63 1023.7
20200530222140 16 60 1.6 6.4 0.00 0.00 0.00 63 1023.7
20200530221643 16 54 1.6 4.8 0.00 0.00 0.00 61 1023.6
20200530221144 16 53 3.2 8.0 0.00 0.00 0.00 61 1023.6
20200530220633 16 51 4.8 8.0 0.00 0.00 0.00 61 1023.5
20200530220144 16 45 4.8 8.0 0.00 0.00 0.00 60 1023.7
20200530215637 16 55 4.8 11.3 0.00 0.00 0.00 60 1023.6
20200530215141 16 42 4.8 11.3 0.00 0.00 0.00 60 1023.6
20200530214638 16 35 3.2 9.7 0.00 0.00 0.00 60 1023.7
20200530214133 16 48 3.2 8.0 0.00 0.00 0.00 61 1023.6
20200530213633 16 104 3.2 8.0 0.00 0.00 0.00 62 1023.6
20200530213145 16 31 4.8 11.3 0.00 0.00 0.00 62 1023.7
20200530212645 16 57 6.4 16.1 0.00 0.00 0.00 62 1023.6
20200530212137 16 31 8.0 16.1 0.00 0.00 0.00 61 1023.4
20200530211632 17 43 6.4 14.5 0.00 0.00 0.00 62 1023.4
20200530211134 17 75 6.4 14.5 0.00 0.00 0.00 64 1023.4
20200530210630 17 64 6.4 14.5 0.00 0.00 0.00 64 1023.3
20200530210128 17 49 6.4 16.1 0.00 0.00 0.00 65 1023.3
20200530205643 17 64 6.4 16.1 0.00 0.00 0.00 66 1023.4
20200530205134 17 77 8.0 16.1 0.00 0.00 0.00 67 1023.3
20200530204630 17 50 8.0 16.1 0.00 0.00 0.00 66 1023.3
20200530204143 17 50 6.4 14.5 0.00 0.00 0.00 66 1023.2
20200530203638 17 39 3.2 12.9 0.00 0.00 0.00 65 1023.1
20200530203139 17 74 4.8 12.9 0.00 0.00 0.00 66 1023.0
20200530202631 17 50 4.8 14.5 0.00 0.00 0.00 65 1023.0
20200530202135 17 39 4.8 14.5 0.00 0.00 0.00 65 1022.9
20200530201637 17 35 4.8 9.7 0.00 0.00 0.00 66 1022.9
20200530201129 17 6 4.8 11.3 0.00 0.00 0.00 66 1022.9
20200530200653 17 69 3.2 12.9 0.00 0.00 0.00 65 1022.8
20200530200126 17 64 3.2 12.9 0.00 0.00 0.00 65 1022.6
20200530195624 18 4 4.8 11.3 0.00 0.00 0.00 64 1022.5
20200530195126 18 44 6.4 11.3 0.00 0.00 0.00 64 1022.5
20200530194627 18 31 4.8 11.3 0.00 0.00 0.00 63 1022.5
20200530194121 18 52 6.4 17.7 0.00 0.00 0.00 63 1022.3
20200530193626 18 52 8.0 17.7 0.00 0.00 0.00 62 1022.3
20200530193133 18 41 8.0 17.7 0.00 0.00 0.00 62 1022.2
20200530192614 18 60 9.7 17.7 0.00 0.00 0.00 61 1022.1
20200530192124 18 44 9.7 17.7 0.00 0.00 0.00 60 1022.1
20200530191623 18 35 9.7 22.5 0.00 0.00 0.00 59 1022.1
20200530191112 19 62 8.0 22.5 0.00 0.00 0.00 58 1022.1
20200530190622 19 43 6.4 17.7 0.00 0.00 0.00 57 1022.1
20200530190112 19 33 8.0 17.7 0.00 0.00 0.00 57 1022.0
20200530185621 20 39 9.7 20.9 0.00 0.00 0.00 55 1022.0
20200530185115 20 300 9.7 20.9 0.00 0.00 0.00 54 1022.0
20200530184621 20 1 8.0 20.9 0.00 0.00 0.00 53 1022.0
20200530184121 20 63 8.0 20.9 0.00 0.00 0.00 52 1022.1
20200530183621 20 31 8.0 17.7 0.00 0.00 0.00 51 1022.0
20200530183123 20 82 8.0 20.9 0.00 0.00 0.00 50 1022.1
20200530182620 20 64 9.7 25.7 0.00 0.00 0.00 49 1022.0
20200530182123 21 28 9.7 25.7 0.00 0.00 0.00 48 1022.0
20200530181606 21 42 9.7 20.9 0.00 0.00 0.00 48 1021.9
20200530181107 21 61 11.3 20.9 0.00 0.00 0.00 47 1022.0
20200530180606 21 45 11.3 29.0 0.00 0.00 0.00 44 1022.0
20200530180106 21 88 11.3 29.0 0.00 0.00 0.00 45 1021.9
20200530175617 21 75 9.7 24.1 0.00 0.00 0.00 43 1022.1
20200530175118 22 18 11.3 24.1 0.00 0.00 0.00 43 1021.9
20200530174608 22 23 8.0 20.9 0.00 0.00 0.00 42 1022.0
20200530174117 22 54 6.4 17.7 0.00 0.00 0.00 38 1022.0
20200530173613 22 89 6.4 14.5 0.00 0.00 0.00 38 1022.0
20200530173109 22 113 8.0 12.9 0.00 0.00 0.00 38 1022.0
20200530172619 22 39 8.0 16.1 0.00 0.00 0.00 39 1022.1
20200530172121 22 82 8.0 16.1 0.00 0.00 0.00 38 1022.0
20200530171619 23 81 8.0 16.1 0.00 0.00 0.00 38 1022.0
20200530171112 23 112 8.0 16.1 0.00 0.00 0.00 36 1022.0
20200530170620 22 86 9.7 16.1 0.00 0.00 0.00 35 1022.1
20200530170103 22 63 9.7 17.7 0.00 0.00 0.00 35 1022.1
20200530165602 22 100 11.3 22.5 0.00 0.00 0.00 36 1022.0
20200530165059 23 121 9.7 22.5 0.00 0.00 0.00 36 1022.2
20200530164600 22 97 6.4 14.5 0.00 0.00 0.00 36 1022.1
20200530164103 22 94 8.0 20.9 0.00 0.00 0.00 36 1022.1
20200530163602 22 99 9.7 20.9 0.00 0.00 0.00 36 1022.1
20200530163059 23 37 9.7 20.9 0.00 0.00 0.00 36 1022.3
20200530162608 23 70 8.0 20.9 0.00 0.00 0.00 34 1022.2
20200530162113 23 84 6.4 14.5 0.00 0.00 0.00 36 1022.2
20200530161557 23 89 6.4 14.5 0.00 0.00 0.00 37 1022.3
20200530161058 23 46 6.4 14.5 0.00 0.00 0.00 35 1022.4
20200530160555 23 50 6.4 14.5 0.00 0.00 0.00 35 1022.5
20200530160102 23 75 8.0 14.5 0.00 0.00 0.00 35 1022.4
20200530155559 23 89 8.0 14.5 0.00 0.00 0.00 38 1022.5
20200530155054 23 94 8.0 16.1 0.00 0.00 0.00 37 1022.6
20200530154547 23 60 8.0 16.1 0.00 0.00 0.00 37 1022.6
20200530154051 22 57 6.4 14.5 0.00 0.00 0.00 37 1022.6
20200530153544 22 85 8.0 16.1 0.00 0.00 0.00 36 1022.7
20200530153053 22 130 9.7 20.9 0.00 0.00 0.00 36 1022.7
20200530152550 22 22 9.7 25.7 0.00 0.00 0.00 36 1022.8
20200530152052 23 83 6.4 25.7 0.00 0.00 0.00 35 1022.7
20200530151541 23 87 4.8 14.5 0.00 0.00 0.00 36 1022.6
20200530151043 22 112 6.4 16.1 0.00 0.00 0.00 38 1022.7
20200530150542 22 70 9.7 20.9 0.00 0.00 0.00 38 1022.8
20200530150042 23 66 9.7 20.9 0.00 0.00 0.00 34 1022.8
20200530145544 23 79 8.0 16.1 0.00 0.00 0.00 37 1022.9
20200530145044 23 102 8.0 16.1 0.00 0.00 0.00 36 1022.9
20200530144537 23 78 8.0 14.5 0.00 0.00 0.00 35 1022.9
20200530144038 23 79 8.0 14.5 0.00 0.00 0.00 36 1022.9
20200530143542 23 43 8.0 16.1 0.00 0.00 0.00 37 1023.1
20200530143040 23 77 11.3 25.7 0.00 0.00 0.00 36 1023.1
20200530142547 23 68 9.7 25.7 0.00 0.00 0.00 34 1023.2
20200530142041 23 87 6.4 17.7 0.00 0.00 0.00 34 1023.2
20200530141537 23 110 6.4 17.7 0.00 0.00 0.00 35 1023.2
20200530141036 23 89 6.4 14.5 0.00 0.00 0.00 33 1023.3
20200530140538 23 99 8.0 19.3 0.00 0.00 0.00 36 1023.4
20200530140037 23 69 11.3 27.4 0.00 0.00 0.00 36 1023.4
20200530135541 23 116 9.7 27.4 0.00 0.00 0.00 34 1023.6
20200530135031 23 84 8.0 19.3 0.00 0.00 0.00 36 1023.5
20200530134530 23 149 9.7 24.1 0.00 0.00 0.00 34 1023.5
20200530134030 23 119 11.3 24.1 0.00 0.00 0.00 37 1023.7
20200530133531 23 54 11.3 24.1 0.00 0.00 0.00 36 1023.7
20200530133027 23 75 9.7 24.1 0.00 0.00 0.00 35 1023.9
20200530132531 23 56 9.7 22.5 0.00 0.00 0.00 36 1023.7
20200530132029 23 84 11.3 17.7 0.00 0.00 0.00 34 1023.8
20200530131524 23 84 8.0 17.7 0.00 0.00 0.00 37 1023.8
20200530131026 23 89 6.4 17.7 0.00 0.00 0.00 38 1023.8
20200530130526 23 95 8.0 17.7 0.00 0.00 0.00 38 1024.0
20200530130021 23 70 6.4 16.1 0.00 0.00 0.00 38 1024.0
20200530125523 23 92 8.0 16.1 0.00 0.00 0.00 37 1024.1
20200530125031 23 106 11.3 19.3 0.00 0.00 0.00 38 1024.2
20200530124533 23 128 9.7 19.3 0.00 0.00 0.00 37 1024.2
20200530124019 23 70 6.4 14.5 0.00 0.00 0.00 35 1024.1
20200530123518 23 98 8.0 19.3 0.00 0.00 0.00 36 1024.2
20200530123017 23 95 9.7 19.3 0.00 0.00 0.00 36 1024.2
20200530122529 23 77 8.0 19.3 0.00 0.00 0.00 36 1024.4
20200530122030 23 83 8.0 16.1 0.00 0.00 0.00 37 1024.4
20200530121514 22 77 8.0 17.7 0.00 0.00 0.00 38 1024.4
20200530121010 22 61 9.7 19.3 0.00 0.00 0.00 36 1024.4
20200530120511 23 108 11.3 20.9 0.00 0.00 0.00 38 1024.6
20200530120013 23 81 8.0 20.9 0.00 0.00 0.00 38 1024.6
20200530115509 22 68 11.3 22.5 0.00 0.00 0.00 37 1024.5
20200530115015 22 72 12.9 22.5 0.00 0.00 0.00 37 1024.6
20200530114511 22 115 11.3 27.4 0.00 0.00 0.00 39 1024.6
20200530114015 22 88 11.3 27.4 0.00 0.00 0.00 37 1024.7
20200530113504 22 87 11.3 25.7 0.00 0.00 0.00 37 1024.7
20200530113017 22 111 8.0 16.1 0.00 0.00 0.00 39 1024.8
20200530112506 22 89 9.7 24.1 0.00 0.00 0.00 38 1024.8
20200530112008 22 77 9.7 24.1 0.00 0.00 0.00 37 1024.9
20200530111513 22 143 9.7 20.9 0.00 0.00 0.00 36 1024.9
20200530111006 22 112 9.7 20.9 0.00 0.00 0.00 37 1025.0
20200530110506 22 71 9.7 17.7 0.00 0.00 0.00 37 1025.0
20200530110008 22 103 9.7 19.3 0.00 0.00 0.00 40 1025.0
20200530105503 22 80 9.7 20.9 0.00 0.00 0.00 41 1025.1
20200530105003 21 61 9.7 20.9 0.00 0.00 0.00 38 1025.2
20200530104503 21 56 9.7 16.1 0.00 0.00 0.00 38 1025.2
20200530104005 22 81 8.0 16.1 0.00 0.00 0.00 41 1025.2
20200530103504 22 62 8.0 16.1 0.00 0.00 0.00 38 1025.2
20200530103006 22 137 11.3 25.7 0.00 0.00 0.00 39 1025.3
20200530102504 21 113 11.3 25.7 0.00 0.00 0.00 40 1025.5
20200530102010 22 98 9.7 19.3 0.00 0.00 0.00 39 1025.4
20200530101457 22 106 8.0 17.7 0.00 0.00 0.00 38 1025.4
20200530100959 22 108 9.7 27.4 0.00 0.00 0.00 38 1025.5
20200530100458 21 144 9.7 27.4 0.00 0.00 0.00 38 1025.5
20200530095957 21 80 8.0 19.3 0.00 0.00 0.00 41 1025.4
20200530095451 21 133 9.7 20.9 0.00 0.00 0.00 39 1025.4
20200530094951 21 106 11.3 24.1 0.00 0.00 0.00 39 1025.5
20200530094452 21 102 9.7 25.7 0.00 0.00 0.00 39 1025.5
20200530093952 21 100 9.7 25.7 0.00 0.00 0.00 39 1025.7
20200530093456 21 99 8.0 17.7 0.00 0.00 0.00 39 1025.5
20200530092953 21 181 8.0 20.9 0.00 0.00 0.00 40 1025.6
20200530092452 21 75 8.0 20.9 0.00 0.00 0.00 42 1025.5
20200530091950 21 111 8.0 17.7 0.00 0.00 0.00 41 1025.6
20200530091447 21 111 11.3 22.5 0.00 0.00 0.00 43 1025.6
20200530091000 21 116 9.7 22.5 0.00 0.00 0.00 43 1025.6
20200530090447 21 79 9.7 24.1 0.00 0.00 0.00 44 1025.6
20200530085951 21 104 9.7 24.1 0.00 0.00 0.00 42 1025.6
20200530085451 21 87 8.0 16.1 0.00 0.00 0.00 46 1025.7
20200530084945 20 81 9.7 22.5 0.00 0.00 0.00 45 1025.7
20200530084442 20 79 9.7 22.5 0.00 0.00 0.00 45 1025.7
20200530083941 20 93 8.0 19.3 0.00 0.00 0.00 46 1025.6
20200530083442 20 90 8.0 16.1 0.00 0.00 0.00 45 1025.7
20200530082954 20 95 8.0 16.1 0.00 0.00 0.00 50 1025.7
20200530082439 20 84 9.7 19.3 0.00 0.00 0.00 48 1025.8
20200530081944 20 89 8.0 19.3 0.00 0.00 0.00 49 1025.8
20200530081432 20 61 6.4 17.7 0.00 0.00 0.00 49 1025.9
20200530080935 20 135 6.4 16.1 0.00 0.00 0.00 49 1025.8
20200530080433 20 101 8.0 14.5 0.00 0.00 0.00 52 1025.8
20200530075936 19 62 9.7 17.7 0.00 0.00 0.00 53 1025.9
20200530075433 19 120 11.3 17.7 0.00 0.00 0.00 54 1025.8
20200530074936 18 83 8.0 19.3 0.00 0.00 0.00 54 1025.8